Theta_e
337 336 338 345 345 346 346 347 347 347 348 347 347 345 344 342 342 341 342 342 342 342 342 342 341 342 342 343 345 347 347 348 348 348 348 348 347 347 347 347 347 347 346 345 345 345 344 343 342 341 341 339 340 341 341 343 343 345 345 345 345 346 346 345 345 345 346 345 345 345 344 345 345 344 343 343 342 341 340 340 338 335 334 337 341
336 337 339 343 342 345 347 347 347 347 349 348 347 343 342 342 342 341 342 341 341 342 342 342 341 342 344 349 348 348 348 348 348 347 347 347 347 346 346 346 346 345 345 344 344 344 344 343 342 342 343 341 340 340 339 340 342 343 343 344 344 344 344 345 344 344 344 344 344 344 344 343 344 344 343 342 342 341 340 340 339 334 334 340 340
339 339 339 342 343 346 346 347 347 348 346 344 343 343 341 340 341 341 341 341 340 341 341 341 341 342 344 345 346 346 347 347 346 346 345 344 344 344 343 343 343 344 344 343 342 342 343 342 342 341 339 340 339 338 339 339 342 342 342 342 342 342 342 342 341 341 341 341 341 342 342 342 341 341 342 341 342 341 340 340 339 337 333 340 339
340 340 340 342 342 343 344 345 345 348 347 346 344 343 343 342 341 341 341 341 340 340 340 341 341 341 342 344 344 345 346 346 346 345 345 344 343 343 342 342 342 342 341 341 341 341 342 341 341 341 340 339 339 339 338 338 339 339 341 341 341 340 340 340 340 339 338 339 338 336 334 332 338 342 344 344 344 343 341 341 340 340 340 340 340
342 343 341 341 339 341 343 343 344 347 345 345 344 342 340 340 339 339 339 339 339 340 340 339 340 342 343 343 342 343 344 344 345 344 344 343 342 341 342 341 341 341 340 340 340 341 341 341 341 340 338 338 338 337 337 338 339 339 340 340 340 340 339 338 338 337 337 336 336 332 328 332 337 341 343 344 344 342 341 341 342 342 341 340 339
342 344 344 343 341 341 342 342 346 347 346 345 343 342 342 342 341 339 339 338 338 338 339 340 340 340 340 345 347 346 346 345 345 345 343 343 342 340 341 341 341 340 339 339 339 339 340 342 341 340 339 338 337 337 337 338 339 339 339 340 339 339 339 339 338 338 336 335 335 331 331 330 334 337 342 343 343 340 340 340 341 341 340 340 342
343 345 345 344 342 343 343 344 348 348 347 346 344 343 342 342 341 340 339 340 340 339 339 339 339 341 345 346 346 346 346 345 343 342 340 339 339 340 340 340 340 339 338 339 339 339 340 341 340 340 340 338 338 337 337 337 337 338 339 340 340 340 340 339 338 337 335 332 330 331 332 333 334 336 341 342 340 342 339 340 341 341 342 341 340
345 345 345 344 343 343 344 347 348 348 347 346 344 342 341 340 340 340 339 339 339 340 340 339 339 339 342 346 346 346 345 344 343 341 340 339 339 339 339 339 338 338 337 338 338 340 341 341 340 341 340 339 338 337 336 336 338 338 339 340 340 340 339 338 337 336 335 330 331 331 332 333 334 335 340 341 340 340 339 341 341 341 340 339 336
343 344 343 342 342 343 345 347 348 348 347 346 345 344 343 342 340 340 340 339 339 339 340 339 338 339 343 344 344 343 343 342 340 339 338 338 337 337 338 338 337 337 337 337 338 338 340 340 341 339 339 338 337 338 338 339 339 339 339 340 339 339 338 337 335 333 332 331 331 331 331 332 333 334 339 340 340 340 339 338 339 339 338 337 336
343 343 341 339 340 342 345 347 348 347 347 346 344 343 343 342 341 341 340 339 339 339 339 339 339 339 341 342 342 342 341 340 339 336 336 336 336 336 336 336 337 337 338 338 338 338 339 341 340 340 340 341 340 340 339 339 339 339 340 339 339 338 337 335 333 331 328 329 330 331 333 335 331 334 338 340 340 339 337 334 335 335 336 336 336
343 342 339 337 338 342 347 349 348 347 346 345 345 343 342 342 341 341 340 340 340 339 339 339 338 341 343 342 341 340 339 339 338 338 340 338 335 335 335 336 336 337 337 337 338 339 339 340 341 342 342 341 340 339 340 340 339 339 339 339 339 338 336 334 331 327 328 328 328 329 334 336 331 332 339 339 339 338 335 335 335 335 335 336 336
342 341 337 336 342 342 347 347 347 346 345 346 346 344 342 341 341 341 340 339 339 340 339 339 337 339 341 339 337 338 339 338 338 341 341 339 335 334 335 336 335 337 336 336 337 338 339 341 340 341 341 341 340 340 340 339 339 339 339 339 338 336 335 333 329 328 327 328 330 330 329 330 330 333 338 338 338 335 333 333 333 333 333 334 334
341 340 336 335 337 341 344 347 346 346 346 346 345 344 343 343 342 341 341 340 340 339 339 338 338 338 338 337 338 338 338 338 340 342 342 339 336 334 334 335 335 336 337 337 337 338 339 340 340 340 340 339 339 339 339 339 339 338 338 337 337 336 334 332 328 328 328 327 328 328 329 329 330 335 336 336 334 333 333 332 332 331 331 330 330
340 340 338 337 337 344 341 343 344 345 346 346 345 344 343 342 342 341 341 340 340 339 338 338 338 337 338 336 338 338 339 342 342 342 341 339 337 334 333 335 336 337 337 337 337 337 338 340 340 341 340 339 339 339 339 339 338 338 337 336 336 334 332 331 331 330 329 329 329 328 328 330 330 334 334 334 336 335 333 332 332 332 332 332 331
339 340 339 338 339 342 342 339 342 342 344 345 345 345 343 343 342 341 341 340 340 339 339 338 337 336 337 337 335 341 341 341 340 340 340 338 336 334 333 335 337 337 337 336 336 337 339 340 340 340 339 338 337 338 338 338 337 336 335 334 333 332 329 329 329 329 328 327 326 326 326 329 333 332 335 336 334 333 333 332 332 331 332 329 328
340 340 340 341 341 343 344 342 338 338 341 343 343 344 344 344 342 341 341 340 340 340 338 338 338 336 336 337 335 339 339 338 339 339 339 337 335 333 332 334 336 336 337 337 337 337 339 339 338 337 337 337 337 336 337 337 336 335 335 333 331 329 327 326 327 325 323 324 323 323 324 328 332 332 333 333 333 332 332 332 332 330 328 327 326
340 340 340 341 342 343 344 342 338 334 335 336 339 340 341 343 343 341 341 341 340 339 339 338 337 337 337 342 339 340 340 338 338 339 339 337 334 333 333 333 337 336 336 336 337 337 337 337 337 337 336 337 336 336 336 335 335 333 332 331 329 327 324 323 323 321 322 322 321 322 324 323 331 332 332 332 331 331 330 330 328 327 326 325 325
340 340 339 341 342 343 343 341 336 335 336 334 333 337 339 341 341 340 340 340 340 340 339 339 338 339 338 337 338 339 341 342 339 339 337 336 333 332 332 335 336 335 336 335 336 337 336 336 336 336 336 336 335 335 334 334 333 332 331 330 328 326 324 324 323 323 323 323 320 320 323 331 331 331 330 330 328 327 328 327 327 326 325 325 325
340 340 340 341 341 342 343 341 336 335 335 335 333 335 334 337 338 338 338 339 340 339 339 337 337 337 335 332 331 331 331 333 336 337 337 335 333 333 333 336 334 336 334 334 335 336 336 336 336 335 335 334 335 334 333 332 331 330 329 326 324 322 321 323 322 322 321 320 320 322 326 331 330 329 331 332 331 330 326 323 323 323 323 324 324
338 339 340 340 341 342 341 341 340 338 335 334 333 333 332 332 334 335 336 337 337 338 336 333 330 329 328 327 325 324 324 325 326 329 331 333 331 328 332 333 335 334 333 333 334 335 336 335 335 335 334 334 333 332 331 330 329 328 326 324 321 320 323 321 318 318 318 319 318 319 329 330 332 331 329 329 329 328 326 325 324 323 323 323 322
337 338 339 340 341 341 340 340 340 340 338 336 334 334 333 329 330 329 331 333 334 334 332 325 322 321 321 320 320 320 320 321 322 323 322 325 324 326 330 334 333 332 332 333 334 335 335 335 334 334 332 330 327 327 327 328 327 325 324 321 319 321 321 321 320 320 320 318 322 326 330 331 331 329 326 325 327 325 323 322 323 323 323 322 322
334 335 338 339 340 340 340 340 339 340 339 338 338 334 331 332 332 330 329 329 328 326 325 324 324 320 319 320 319 320 319 319 320 324 322 323 323 323 326 332 333 332 332 333 333 333 333 333 332 330 328 324 319 315 315 319 320 320 318 316 317 317 319 321 320 318 317 318 323 327 332 331 330 329 328 327 326 324 325 324 322 322 322 321 321
333 334 336 338 339 340 340 339 339 339 339 339 338 336 334 333 331 330 329 326 326 325 324 322 320 320 319 319 318 318 318 318 317 319 319 320 322 322 326 329 332 330 331 331 332 332 332 331 329 327 324 319 312 310 310 309 311 314 313 313 313 315 316 316 316 315 315 317 319 328 330 330 331 330 328 325 324 322 322 321 322 321 321 321 320
333 334 335 338 339 338 339 339 339 339 339 339 338 337 336 336 334 331 329 326 325 324 322 321 320 319 319 318 317 317 317 318 321 321 321 320 321 321 324 326 328 326 324 324 328 329 328 327 324 321 316 311 309 309 309 308 309 309 310 310 311 311 313 312 310 312 314 320 324 327 330 329 329 328 327 325 323 322 322 322 321 321 320 320 319
334 335 334 336 338 338 338 339 339 339 339 338 337 337 337 336 336 334 329 324 324 323 322 321 320 319 318 318 317 316 317 317 317 317 318 318 318 319 320 318 318 314 316 310 310 311 311 309 309 309 308 309 309 308 309 308 308 308 309 308 309 309 309 309 309 310 313 317 323 325 328 329 328 328 326 324 323 322 323 321 320 319 319 319 319
333 332 333 335 337 338 338 338 338 338 338 338 337 336 336 336 336 336 332 326 323 322 321 321 320 319 318 317 316 316 316 317 315 316 317 317 317 315 316 315 313 311 311 307 305 306 306 306 307 306 305 306 307 306 305 307 308 307 307 307 307 307 307 308 308 308 310 313 315 321 326 328 327 327 324 324 323 321 322 322 322 320 319 319 319
332 333 334 335 336 337 338 338 337 338 338 339 338 337 337 337 337 336 333 328 325 322 320 319 320 319 318 317 317 316 316 316 315 315 315 316 316 314 313 312 314 312 309 306 304 303 305 305 305 304 304 305 305 304 305 305 305 307 306 305 305 306 306 306 306 306 309 311 313 321 325 328 327 325 323 324 323 323 323 322 321 320 319 319 318
332 333 333 334 333 336 338 338 337 337 337 338 338 336 337 337 337 334 333 329 326 324 321 320 320 319 318 317 316 316 317 316 315 315 314 313 315 314 313 312 311 311 308 306 304 302 303 303 304 303 305 303 305 303 304 304 304 305 306 303 303 305 304 304 305 305 305 307 309 316 323 325 326 323 323 322 322 323 322 321 321 321 320 319 317
330 331 333 334 334 335 337 337 337 337 337 338 337 337 337 337 336 335 334 327 328 326 323 320 319 318 318 317 316 316 315 316 316 315 313 314 312 313 311 311 311 310 307 304 304 303 303 303 304 304 304 304 303 304 303 303 303 304 305 303 302 302 302 304 305 303 303 304 308 313 321 323 326 325 324 322 324 323 323 321 321 320 319 319 318
330 332 332 333 335 336 336 336 337 337 337 338 337 336 336 336 336 335 336 329 330 328 325 321 319 318 318 317 316 316 316 316 316 314 315 313 312 310 311 310 312 308 306 305 302 303 302 302 303 303 304 303 304 303 303 303 302 301 302 303 301 300 302 303 303 302 302 303 305 308 318 321 324 326 325 322 323 324 322 322 320 318 318 318 317
328 330 332 333 332 335 335 336 337 336 337 337 337 337 336 335 335 336 336 332 332 329 325 323 320 318 319 318 317 316 316 315 315 314 313 313 312 312 312 309 309 308 305 304 301 302 302 302 303 303 303 303 302 301 303 302 301 301 300 301 299 299 301 301 301 300 301 302 301 302 310 319 322 325 326 322 323 322 322 322 320 318 318 318 318
324 327 330 332 333 334 335 336 336 336 336 337 336 336 336 336 335 335 335 334 333 331 327 324 321 320 320 318 317 316 315 314 314 314 314 313 312 312 311 310 310 307 306 303 303 301 301 300 300 300 300 301 300 300 300 302 300 299 299 299 299 300 298 299 299 298 298 299 298 299 302 312 318 321 323 325 323 321 322 322 319 320 319 319 318
324 324 325 328 332 333 334 336 336 336 335 336 336 336 337 336 335 335 335 335 334 333 329 326 324 322 322 321 320 319 317 316 315 315 313 313 313 311 310 310 310 309 305 303 302 300 299 299 299 298 298 299 299 299 299 299 299 297 298 297 299 298 297 297 297 297 296 296 297 296 299 300 304 312 315 319 323 321 321 320 320 320 319 320 319
323 321 321 324 329 333 334 335 335 336 335 336 336 336 336 336 336 335 334 335 334 334 332 329 326 324 323 322 321 320 318 318 316 315 315 313 312 312 311 310 309 308 304 303 301 300 299 299 297 298 300 299 299 297 299 298 295 295 295 295 295 296 297 297 296 295 296 296 295 295 295 296 298 299 301 313 317 320 322 319 319 318 317 317 317
319 319 321 324 324 329 333 334 333 336 334 335 335 336 336 336 336 335 335 335 335 334 334 332 328 325 323 323 321 320 319 318 317 315 314 314 313 313 313 313 312 310 306 304 302 300 299 298 298 298 296 297 296 297 298 297 296 295 294 295 294 294 296 297 296 296 296 296 296 296 295 295 295 296 298 298 305 313 320 320 319 318 318 317 317
320 321 320 321 323 326 329 333 334 335 335 334 335 336 336 336 336 331 335 335 334 334 334 334 332 327 324 324 322 320 319 319 318 316 314 313 313 313 314 313 312 310 308 305 303 300 299 299 298 299 298 295 296 295 295 295 294 293 292 293 293 294 294 295 296 295 294 295 296 296 296 296 295 296 299 295 297 303 313 317 321 319 318 318 317
318 319 320 319 321 323 325 330 332 334 335 335 335 336 336 336 336 335 336 335 334 334 335 334 333 330 326 325 324 321 319 319 318 317 315 313 313 313 313 312 311 311 309 306 304 303 301 300 298 299 301 296 296 294 293 294 293 292 292 292 292 293 293 293 294 296 295 296 295 295 295 295 297 298 293 294 294 296 305 312 316 319 318 318 317
317 317 319 320 321 322 324 327 331 333 335 335 335 335 336 336 335 336 333 335 334 335 335 335 334 333 329 326 326 323 320 319 319 318 316 315 313 312 311 311 311 311 310 307 305 303 302 301 299 299 299 298 296 295 294 293 293 292 291 291 290 290 291 291 292 294 293 295 295 295 292 291 292 293 293 293 294 295 296 305 310 311 310 315 316
316 317 317 319 319 320 321 323 326 330 333 334 333 334 334 333 334 334 334 335 335 335 335 334 335 334 332 330 328 326 321 320 319 318 317 316 314 313 311 309 310 310 310 308 305 302 301 301 301 298 298 299 299 297 296 294 292 291 291 289 289 289 290 291 291 291 291 292 294 295 292 291 291 292 292 293 293 294 295 295 297 298 303 314 316
314 315 315 316 318 318 319 322 323 328 331 332 332 331 331 330 329 328 330 332 334 332 334 334 334 334 333 332 330 329 326 322 321 319 318 316 315 314 312 309 308 309 309 308 306 303 301 300 300 300 297 295 296 297 295 294 291 290 291 290 289 289 290 291 290 291 291 291 292 292 292 291 290 291 291 291 291 293 293 294 295 296 298 306 313
310 312 314 315 317 319 318 319 322 325 328 330 330 330 328 328 328 329 328 329 330 332 332 334 334 335 334 334 332 331 329 325 322 322 319 316 316 316 314 309 308 308 308 308 308 305 303 301 301 299 297 295 294 295 295 296 294 293 292 291 290 290 291 290 289 290 291 291 290 290 292 291 291 290 290 289 291 291 292 292 292 292 294 294 299
308 310 313 315 317 318 318 320 320 322 326 329 330 329 330 330 329 329 330 330 328 328 329 330 332 332 332 333 332 332 331 328 324 324 321 320 318 316 314 311 307 306 307 309 309 306 304 302 300 298 298 298 295 294 295 297 295 297 293 292 292 292 292 290 290 291 290 290 289 290 290 290 292 291 289 289 290 290 291 291 291 292 291 292 292
305 309 311 312 313 315 318 318 319 321 324 326 328 329 330 331 330 329 329 326 326 329 330 328 328 329 330 332 332 332 332 330 327 323 323 322 320 319 317 315 310 307 306 306 308 307 305 303 300 300 298 297 295 295 294 300 298 295 295 295 294 294 297 292 291 291 291 289 288 288 289 289 291 290 289 289 290 290 290 290 290 291 291 291 291
303 304 308 311 313 314 316 318 318 320 322 323 322 327 327 325 325 323 322 326 323 317 321 320 324 327 328 328 330 332 332 331 329 326 325 324 322 321 320 317 314 310 307 307 307 306 305 304 302 300 299 295 294 293 296 298 297 296 293 295 293 292 293 297 295 293 291 290 289 288 288 288 289 288 287 289 290 290 290 289 289 290 291 291 291
302 305 307 310 313 313 315 316 317 318 320 318 321 319 318 319 317 315 314 316 314 316 318 321 323 322 324 326 328 328 330 330 330 328 325 326 325 323 322 320 316 312 309 307 306 306 305 304 303 301 299 299 295 294 294 296 298 302 300 291 289 290 294 293 289 291 288 289 289 289 288 287 287 287 288 288 288 289 290 289 289 289 290 291 292
298 302 303 308 308 309 311 313 314 315 317 317 318 317 320 322 319 320 319 318 319 317 318 321 322 322 324 326 325 327 328 328 330 330 328 326 327 325 324 322 319 316 312 310 309 308 306 305 303 302 301 300 300 295 293 294 297 299 301 301 298 299 293 289 294 296 288 289 289 288 288 288 287 287 288 287 287 288 289 290 291 291 290 290 291
295 297 300 304 306 306 309 312 314 314 314 313 315 316 318 320 321 322 322 321 320 321 321 320 323 322 322 323 325 325 327 328 328 329 329 326 327 327 325 324 322 319 314 313 312 310 308 306 305 303 302 301 300 297 295 294 295 296 297 298 296 296 297 292 293 292 293 290 286 287 287 287 287 286 287 287 287 288 289 289 290 291 291 290 290
293 293 297 299 304 306 307 310 310 311 311 312 314 316 319 319 319 319 319 320 319 319 317 316 312 312 317 320 322 324 324 327 328 328 329 328 326 327 326 325 324 322 318 315 314 313 311 309 306 305 303 302 301 300 298 296 293 295 296 296 296 295 295 294 295 298 296 291 291 287 287 287 287 287 286 287 287 288 288 289 290 291 291 290 289
292 293 296 298 300 302 303 305 308 309 309 311 313 313 315 317 317 318 317 316 316 314 304 304 311 308 313 314 319 321 322 323 326 327 327 328 325 326 326 325 324 323 318 318 316 314 312 310 307 305 303 302 302 302 302 298 295 296 296 295 295 295 294 293 293 293 294 292 297 291 289 287 287 287 287 287 288 289 289 290 290 290 290 289 288
291 292 294 296 298 300 302 303 305 305 306 307 310 311 312 312 314 314 315 315 312 307 304 307 306 304 310 310 315 318 319 320 321 323 325 325 325 323 324 325 325 324 318 319 318 316 315 313 311 307 305 304 303 302 302 302 299 299 298 297 295 294 294 294 293 292 292 295 297 294 292 287 285 287 287 287 288 290 290 291 290 290 289 289 288
291 292 293 294 295 299 300 302 304 303 303 306 308 310 310 311 313 313 313 314 311 309 307 306 303 302 306 308 311 314 317 318 318 318 321 323 323 321 323 324 324 320 319 321 320 319 318 315 312 309 306 305 305 304 303 303 303 301 300 299 298 296 295 294 295 295 294 292 289 292 293 290 291 290 288 288 289 290 290 290 289 289 289 289 288
Wind_Speed
4 5 3 7 9 9 8 8 6 5 11 12 11 10 10 11 11 11 11 12 13 12 12 11 11 11 12 10 13 14 15 15 15 16 16 16 16 16 16 16 17 18 17 17 17 16 17 17 17 16 16 16 16 15 15 16 17 18 18 19 19 18 18 18 17 16 16 17 18 19 18 18 19 20 20 20 20 18 15 14 15 13 11 15 21
8 5 5 7 10 10 9 9 8 7 12 12 10 10 10 11 12 10 11 11 12 14 12 11 12 12 13 16 16 15 14 16 17 17 17 16 16 16 16 16 16 16 17 17 16 16 16 17 17 17 17 16 16 16 16 16 17 18 19 19 19 19 19 18 17 15 15 15 16 17 16 18 19 19 19 19 20 19 16 16 17 11 9 20 20
6 7 5 7 11 11 9 10 8 8 12 11 10 10 11 10 11 11 11 11 12 14 12 12 12 13 13 13 13 14 16 16 17 16 16 15 15 14 14 14 14 15 16 15 15 15 16 16 16 17 16 16 16 16 16 16 17 18 19 19 19 18 18 18 17 17 16 16 16 16 15 18 19 19 19 20 19 17 16 17 17 17 13 22 19
9 7 5 9 10 10 10 11 7 10 12 11 11 11 12 12 12 11 11 12 12 12 12 13 12 13 12 13 13 14 14 15 16 16 15 15 14 13 12 13 14 14 14 15 15 15 15 16 16 16 16 17 16 17 17 17 17 18 18 18 18 17 17 17 16 16 14 12 11 8 6 7 12 18 19 20 20 20 15 17 18 20 21 20 22
9 7 6 8 9 11 12 11 8 13 12 11 11 11 12 12 13 11 11 12 12 13 12 12 13 13 12 11 12 12 13 14 14 14 15 14 14 13 12 12 13 14 15 15 15 15 15 16 16 16 16 17 17 17 17 17 18 17 17 17 17 17 16 16 15 14 13 14 13 8 6 7 9 17 19 20 20 18 18 20 21 21 20 22 22
9 6 6 6 7 8 11 9 9 13 12 11 11 12 12 12 13 12 11 10 11 13 13 12 12 11 12 14 13 14 14 14 14 15 14 14 13 12 12 12 13 14 15 15 15 14 15 16 16 16 16 16 17 16 17 17 17 17 17 17 17 16 16 16 15 14 14 13 11 6 6 5 6 9 19 20 21 18 19 20 21 20 19 22 22
10 6 7 7 6 9 13 12 12 13 13 12 12 12 12 12 12 12 12 11 11 11 12 12 11 13 13 12 12 14 14 14 15 14 13 13 12 12 11 12 13 14 14 14 14 14 14 15 16 16 16 16 16 16 16 16 16 16 17 17 16 17 17 16 15 14 13 8 6 6 7 8 7 6 19 19 19 20 20 21 21 23 22 22 20
7 6 7 6 6 10 14 15 14 14 13 12 12 12 12 12 12 11 11 10 11 11 12 12 11 12 14 15 14 14 14 14 15 14 14 14 13 12 12 12 13 13 14 14 14 14 14 15 16 16 16 16 16 16 16 16 16 16 16 17 17 17 16 16 14 13 12 6 6 6 7 8 7 6 19 20 20 21 19 21 21 22 22 21 15
8 7 6 6 6 11 12 13 15 14 13 13 13 12 12 12 12 12 11 11 11 10 11 12 10 11 13 13 13 12 13 13 13 12 12 13 12 12 12 12 12 13 13 13 13 13 14 15 16 16 16 16 16 15 16 15 16 16 16 17 17 16 15 15 13 11 7 6 7 6 6 5 6 7 17 21 21 22 20 17 18 22 22 17 18
8 6 5 5 5 10 11 12 15 14 14 13 12 12 12 13 12 12 11 11 10 10 10 11 10 11 13 12 13 12 12 12 11 10 13 13 12 12 13 13 12 13 13 12 12 13 14 15 15 15 16 16 16 16 15 16 16 16 17 17 17 16 15 14 12 8 6 6 7 6 8 9 5 7 17 22 22 22 20 19 16 15 15 20 23
8 5 5 5 5 10 11 13 12 12 13 12 12 12 12 12 12 12 11 11 11 10 10 10 9 12 13 11 13 11 10 11 11 11 14 15 12 10 13 13 12 13 12 12 13 14 14 14 15 15 16 15 16 16 16 17 17 17 17 17 16 16 14 13 9 6 7 7 7 6 9 13 7 7 19 22 22 22 17 18 18 20 20 22 22
9 5 4 4 6 9 10 11 12 13 12 12 13 12 12 12 12 11 11 11 11 10 10 10 8 12 13 10 10 11 10 10 11 13 14 15 13 11 12 11 13 13 12 12 13 13 13 14 14 15 15 16 16 16 17 17 17 17 17 17 16 15 14 12 7 7 7 7 7 7 6 8 8 12 21 21 21 21 18 18 19 20 20 20 20
9 5 4 4 4 7 9 10 11 12 12 13 12 12 12 12 12 11 11 11 11 10 9 9 8 7 10 10 11 10 10 11 11 13 14 14 13 11 10 11 13 13 12 11 11 11 13 14 15 15 16 15 15 16 16 17 17 17 17 16 15 15 14 11 7 7 7 6 6 6 7 6 7 16 19 21 19 18 18 17 18 18 19 18 17
8 6 4 4 4 6 9 9 10 11 11 11 12 12 12 12 12 11 11 11 10 10 9 9 8 6 10 10 11 9 10 10 12 13 13 14 13 11 10 11 13 13 12 11 10 11 12 14 15 16 15 15 14 15 16 16 16 16 15 15 15 16 13 9 8 7 7 6 6 6 6 5 6 17 17 17 20 20 18 18 19 20 19 19 20
9 7 5 3 4 4 8 8 10 9 9 10 11 11 12 12 12 11 11 11 11 10 10 9 8 6 10 11 10 11 11 12 11 12 12 14 12 11 10 12 14 13 11 11 10 10 13 14 15 15 14 14 14 14 15 16 16 16 15 15 16 12 9 6 6 6 6 6 5 5 4 4 13 15 19 20 18 18 19 19 19 18 19 19 19
6 8 5 4 4 4 5 6 9 8 8 9 9 10 10 11 11 11 11 11 11 11 10 9 8 7 7 11 9 11 10 10 11 11 13 13 12 11 10 12 14 13 12 11 11 11 14 14 14 14 13 13 13 14 15 15 15 16 16 16 15 11 11 6 5 4 5 5 3 4 4 6 14 16 17 17 18 17 17 18 18 19 19 18 17
6 6 7 5 4 3 5 4 5 8 8 8 8 9 8 8 9 11 10 10 10 10 10 10 9 8 6 7 7 9 10 10 10 12 13 13 13 11 9 11 15 13 12 11 10 11 13 14 14 13 14 14 13 14 15 15 15 16 16 16 12 8 8 6 5 4 5 4 3 4 5 3 11 15 16 16 17 17 16 17 17 18 16 16 16
5 7 7 6 5 3 5 3 4 4 4 6 8 8 8 8 8 8 9 8 9 9 9 9 8 6 8 8 8 8 8 7 10 12 13 13 12 10 8 13 13 13 12 11 11 13 13 14 14 13 14 14 15 15 14 14 14 13 12 10 10 9 9 7 4 4 4 4 4 3 4 10 15 16 17 16 15 16 17 15 15 15 15 15 16
5 6 6 6 6 4 5 4 3 3 4 4 3 5 9 8 8 8 8 8 8 8 8 6 7 8 9 10 10 10 10 10 10 11 11 11 11 9 5 9 13 14 12 11 11 13 14 14 14 14 15 15 15 14 14 14 13 13 14 11 12 9 8 5 4 4 4 4 4 6 6 13 15 15 17 18 18 18 16 14 14 14 14 15 15
6 6 6 6 5 4 4 4 4 4 3 3 3 4 7 8 8 7 8 8 8 8 8 7 8 9 9 10 10 8 8 8 11 8 11 11 10 6 5 5 15 13 11 12 12 12 14 14 15 15 14 14 14 13 12 12 11 10 10 10 10 9 6 4 4 4 4 3 3 3 8 14 17 17 16 17 18 17 16 15 14 14 14 15 14
5 6 6 6 6 5 6 4 5 5 4 4 3 4 5 8 6 7 7 7 8 8 8 9 9 8 8 8 8 6 5 5 6 6 9 8 9 8 4 8 13 12 11 12 13 12 14 14 14 14 14 13 11 12 11 11 10 10 9 10 10 6 4 4 4 3 3 3 4 5 13 14 16 16 16 15 16 15 13 12 14 15 14 13 13
7 6 6 6 6 6 6 6 5 6 5 4 3 3 3 6 4 4 4 5 6 7 6 5 6 5 7 6 5 5 5 4 5 5 5 6 7 9 7 10 13 10 10 11 12 13 13 14 14 14 14 12 11 7 7 9 10 9 8 9 7 4 3 4 5 4 3 3 5 6 10 12 15 17 17 17 14 14 14 14 13 13 13 12 12
7 6 6 8 6 6 6 7 6 5 6 5 4 4 5 4 4 4 3 5 5 5 4 4 4 4 4 4 4 5 4 4 4 4 4 7 7 9 9 10 10 9 9 10 11 12 13 13 13 13 12 11 7 5 5 5 5 8 7 6 5 4 3 4 5 4 2 1 3 11 15 16 17 18 17 16 13 12 12 11 13 13 13 13 12
9 8 7 7 6 6 7 7 7 6 6 5 5 4 4 4 4 4 4 4 4 4 4 4 4 4 4 4 4 4 4 5 6 7 7 5 6 9 9 9 10 9 10 6 8 10 12 12 12 11 7 5 5 5 5 5 4 4 4 5 5 4 4 4 4 3 2 3 6 14 13 15 16 15 15 14 13 12 12 12 12 11 12 11 12
7 5 5 8 8 7 7 7 7 6 6 6 6 5 5 4 5 4 4 4 4 4 4 4 4 4 4 4 4 4 4 5 4 5 5 5 5 5 5 5 5 5 7 5 5 5 6 6 5 6 5 5 5 4 4 5 4 4 5 4 5 4 4 4 3 3 3 2 5 9 11 14 15 14 14 14 14 12 13 11 10 10 10 10 11
5 6 8 7 8 7 7 6 7 6 6 6 7 6 6 5 5 5 5 4 4 4 4 4 4 4 4 4 4 5 4 4 4 4 5 5 5 5 5 4 5 4 4 5 5 4 4 5 5 5 4 4 4 4 3 4 5 4 4 4 4 4 4 3 3 3 3 3 3 1 11 12 14 13 12 13 13 11 12 12 12 11 10 10 10
7 8 7 7 7 7 7 7 7 7 7 5 6 6 6 5 5 5 6 5 4 4 4 4 4 4 4 4 6 5 4 4 4 4 4 4 5 4 4 3 5 5 4 6 4 3 5 5 5 5 3 4 4 3 4 3 3 5 4 3 3 4 4 3 3 3 3 3 3 5 11 12 12 11 12 14 13 12 13 11 11 11 11 10 9
6 8 7 7 7 9 8 8 8 7 7 6 7 7 6 6 6 5 6 6 6 5 5 5 4 5 4 5 4 5 6 5 4 4 4 3 4 3 3 3 4 4 4 5 5 4 4 5 5 4 4 3 5 3 4 3 3 3 4 3 3 3 3 3 3 2 3 2 1 1 6 9 10 11 11 11 11 12 11 11 12 12 10 10 10
9 9 8 8 8 8 8 9 8 9 7 6 7 6 6 6 6 5 6 7 6 5 5 4 5 4 4 5 5 6 5 5 5 4 4 4 3 3 3 3 4 3 4 3 5 4 4 5 5 5 4 5 4 4 4 3 3 3 4 4 3 3 3 2 3 2 2 1 2 0 7 10 10 10 10 9 11 11 12 11 10 10 10 10 10
11 9 8 8 7 8 9 10 9 8 8 7 6 7 7 7 7 6 6 6 7 6 5 5 5 5 5 5 5 5 6 6 5 4 5 4 4 3 3 3 4 3 4 4 3 5 5 3 4 4 5 4 5 3 4 4 3 3 3 3 3 2 1 3 3 2 0 2 2 1 6 10 9 9 8 8 12 12 11 11 10 8 10 9 10
9 10 10 9 7 8 9 9 9 8 7 8 7 7 8 8 8 6 6 6 7 6 6 5 5 5 5 5 4 4 5 5 5 5 4 5 4 4 5 3 4 3 3 4 2 3 3 3 3 4 5 5 4 3 4 5 3 3 2 3 2 2 2 3 2 1 1 3 2 1 1 8 9 7 7 9 13 11 10 10 10 8 8 9 10
11 13 10 7 7 9 9 9 9 9 9 9 8 8 8 8 8 7 7 6 7 7 7 6 6 6 5 5 5 5 5 5 5 5 5 6 5 5 5 5 5 5 4 4 4 3 3 3 3 2 3 3 4 4 2 4 3 2 2 3 2 3 2 2 2 2 2 2 2 2 1 1 7 6 6 7 13 9 12 12 10 12 11 10 10
9 6 6 7 11 9 9 9 9 9 10 10 8 8 7 7 8 8 7 6 6 6 7 7 7 6 6 7 7 7 6 6 6 7 7 6 6 5 5 5 4 5 4 4 4 4 4 4 3 3 4 3 4 3 3 3 3 2 2 2 3 3 2 2 2 2 2 2 2 2 1 1 1 2 2 4 9 9 14 12 12 12 11 13 12
7 5 5 10 8 7 8 7 9 10 11 9 8 7 7 6 7 7 7 7 7 7 7 7 7 7 7 8 7 7 7 6 6 6 6 6 6 6 6 5 5 4 4 5 5 5 5 4 4 4 3 4 4 3 4 4 2 2 2 1 2 2 3 3 2 1 1 1 1 1 1 1 1 1 0 3 1 9 9 13 13 11 10 10 11
5 6 10 8 7 9 8 7 9 10 10 10 10 9 8 7 6 6 8 8 7 8 7 7 7 7 7 7 8 7 7 7 6 7 7 6 6 6 6 6 5 5 5 5 5 5 5 5 5 5 3 3 3 2 2 3 3 3 2 1 2 1 2 4 2 1 1 0 1 0 1 0 0 1 1 0 4 2 11 11 12 11 11 12 11
11 10 7 6 8 8 9 10 9 11 10 10 10 9 9 8 7 6 6 8 8 8 8 7 7 7 8 8 10 9 8 8 8 7 7 7 7 6 6 5 7 6 5 5 5 6 5 5 4 6 6 3 3 2 2 3 2 3 1 1 1 1 1 2 3 3 1 0 0 0 0 0 0 0 1 1 0 1 1 5 10 11 13 12 12
8 8 9 7 8 9 10 11 12 12 11 10 10 9 8 9 8 7 7 7 8 8 8 7 6 7 7 8 8 10 10 9 8 8 7 7 7 7 7 7 6 6 6 6 5 5 6 5 5 5 5 6 5 4 2 2 3 2 1 1 0 0 2 1 1 1 1 2 2 0 1 1 1 2 1 1 1 0 2 0 3 13 11 10 11
8 9 9 10 11 9 10 12 11 10 10 10 10 9 8 8 8 9 8 7 8 7 7 7 7 6 7 8 9 9 9 10 9 8 7 7 6 6 5 7 9 8 7 6 6 5 5 6 7 5 5 6 6 6 5 3 3 2 1 1 1 1 1 1 1 1 2 2 2 1 0 2 2 2 2 2 1 1 1 1 2 3 7 8 11
8 9 8 9 7 8 8 10 10 10 10 10 9 8 8 6 6 8 10 11 8 7 6 7 8 8 7 8 8 9 9 11 12 10 8 7 7 7 6 5 5 7 8 9 8 8 7 7 8 7 5 6 8 7 6 5 4 2 1 1 1 1 2 2 1 2 2 2 2 2 2 2 2 2 2 2 2 1 1 0 1 2 2 3 9
7 7 8 8 9 8 7 8 9 10 8 7 7 7 6 7 7 5 7 9 10 9 8 8 5 6 8 10 9 8 7 7 9 12 12 9 8 8 9 9 9 8 8 9 9 9 12 11 11 12 10 4 4 6 7 7 4 3 1 1 1 1 2 1 2 3 3 2 4 3 5 4 3 2 3 2 2 1 2 2 2 2 3 4 4
7 8 9 10 11 12 10 12 11 9 9 9 9 9 9 7 7 10 10 6 6 7 8 9 10 10 8 9 10 11 12 12 9 7 8 9 10 7 5 5 5 5 6 7 8 10 10 9 6 3 9 8 4 6 7 7 7 1 1 2 2 1 2 1 3 4 4 4 3 4 3 3 4 4 4 3 2 2 1 1 1 0 2 3 3
10 10 12 14 12 9 10 11 7 9 10 11 10 10 10 10 9 10 9 8 7 7 6 5 6 7 8 8 9 9 9 10 11 12 11 10 8 8 10 11 11 11 11 11 10 8 7 7 7 7 3 7 8 10 9 9 2 8 5 3 3 4 5 4 5 7 5 4 5 5 5 5 6 5 3 3 3 3 2 2 1 0 0 1 2
8 9 11 6 6 8 10 9 9 10 11 11 10 11 10 10 9 7 8 5 4 7 7 5 5 5 6 8 8 7 9 9 9 9 10 10 11 8 6 5 7 7 7 8 8 8 7 7 6 8 7 3 1 2 9 12 7 5 3 3 4 3 3 4 6 8 7 5 5 6 6 5 6 4 4 4 4 4 3 3 3 2 2 2 2
5 5 6 10 8 9 9 10 10 10 9 10 11 10 8 6 5 4 4 5 4 3 3 3 4 6 7 5 5 8 8 9 12 14 12 12 12 12 12 11 10 9 8 8 6 7 8 9 9 9 7 7 5 7 9 10 4 11 3 7 1 2 6 9 10 8 9 10 8 8 5 7 5 4 4 6 5 4 4 3 4 4 4 5 5
6 8 7 8 7 9 8 7 6 7 7 7 9 5 4 4 3 1 1 1 2 1 3 5 6 6 5 7 8 5 6 7 6 8 10 11 10 10 10 11 11 11 11 11 12 13 14 14 15 13 13 13 10 7 9 10 10 12 8 7 1 1 10 4 2 5 6 7 12 10 8 7 7 6 6 7 3 5 5 5 5 4 4 3 2
6 5 4 5 5 5 5 5 5 5 7 6 6 6 7 7 6 6 6 6 7 6 9 10 8 8 10 7 4 7 7 6 7 7 10 11 12 11 9 9 10 10 11 12 13 12 12 12 13 13 14 13 12 9 9 9 12 10 8 4 5 5 5 3 3 7 1 7 3 7 9 9 7 7 8 7 7 8 7 8 7 7 6 5 4
5 3 4 5 5 5 5 6 6 5 5 5 6 6 6 7 9 10 10 10 10 9 7 6 8 7 5 7 7 6 8 8 7 7 6 8 9 11 14 13 11 9 7 8 8 9 9 12 10 11 12 11 9 10 12 10 7 9 11 11 5 1 2 7 8 1 6 1 6 7 8 8 7 8 10 10 10 9 8 7 8 7 7 5 4
4 3 3 3 5 5 5 5 5 5 5 5 7 8 9 8 8 10 9 10 10 10 7 7 5 5 6 8 7 7 8 8 9 8 8 8 8 8 9 10 10 10 10 10 11 10 8 8 9 11 10 10 12 13 11 8 12 11 11 11 11 4 3 2 1 7 5 3 3 2 5 8 7 10 10 10 11 10 8 8 8 8 6 5 5
4 3 2 2 3 3 4 4 5 4 4 6 7 7 7 8 9 8 9 8 8 7 4 4 5 5 6 5 7 7 7 8 9 9 8 8 9 10 9 7 8 8 9 10 10 10 12 12 12 11 13 13 13 13 10 11 11 13 10 12 11 11 5 3 1 1 6 5 11 6 7 1 5 9 10 10 9 7 8 7 7 8 7 6 6
3 3 2 0 0 1 3 3 4 4 4 5 6 6 7 6 8 8 10 9 6 5 3 5 4 3 6 5 5 6 6 7 7 8 8 7 5 5 6 7 8 8 8 9 10 11 12 14 15 16 16 15 12 12 15 12 13 12 11 10 11 9 6 6 7 7 5 8 13 7 7 8 9 11 10 11 11 9 7 6 7 8 7 7 7
4 3 3 2 1 1 2 3 1 1 3 4 5 6 6 6 8 8 10 10 7 6 6 5 3 3 6 6 6 7 6 6 5 6 7 7 7 7 6 7 7 6 6 7 10 13 14 13 11 10 10 12 11 11 9 8 6 8 10 9 11 11 13 14 15 11 11 8 5 12 9 8 11 7 6 9 10 10 9 8 10 10 8 8 7
Wind_Direction
189 141 156 162 145 147 149 130 119 123 108 100 97 100 106 104 101 105 106 108 108 100 98 105 103 98 100 97 94 97 94 90 87 84 82 83 84 85 87 87 89 90 92 92 91 90 88 88 86 81 78 84 86 84 84 81 81 71 69 67 63 63 66 66 62 60 69 76 80 79 78 79 78 78 78 76 76 72 67 68 74 72 68 73 75
169 148 159 154 145 145 143 137 133 132 107 104 104 105 104 102 104 100 101 102 98 98 101 100 98 101 94 86 88 87 88 91 88 85 84 84 82 83 87 87 88 89 87 85 84 86 86 86 85 84 83 82 80 80 85 87 78 73 74 70 72 73 66 62 62 64 70 75 78 79 80 78 77 78 80 82 82 80 74 72 72 70 70 74 72
132 128 157 157 151 153 148 140 135 133 108 105 110 109 103 99 102 108 107 101 102 107 101 98 103 100 99 98 92 89 89 86 84 84 83 82 81 84 87 92 92 91 86 84 83 84 85 85 85 85 83 82 84 87 89 87 77 75 73 74 75 67 62 61 62 63 61 62 65 64 68 80 83 84 84 82 85 86 85 82 82 81 82 77 71
133 142 154 145 140 141 150 139 141 131 114 119 121 117 109 106 105 103 101 103 104 98 101 106 104 105 97 91 95 93 91 89 90 89 87 86 86 87 93 96 95 93 90 87 86 88 91 91 86 86 85 85 86 88 89 88 85 81 75 69 67 64 60 56 52 52 49 44 50 48 51 53 71 79 81 81 76 74 73 82 86 87 86 84 80
138 143 150 145 143 152 148 137 148 116 118 125 124 117 111 107 101 100 97 98 102 109 109 105 103 108 105 107 107 98 93 98 100 95 91 89 91 91 92 95 96 93 93 93 92 92 92 89 87 87 89 90 90 92 94 93 87 83 72 66 62 61 61 60 56 51 43 41 37 35 33 55 74 82 82 81 79 70 69 70 70 71 76 85 83
145 136 144 144 146 151 142 139 136 125 132 134 129 123 118 112 108 106 107 107 107 107 110 111 111 108 105 101 101 99 97 97 93 91 91 91 90 92 96 96 97 98 95 95 92 93 94 95 91 89 89 91 94 94 96 92 87 76 68 63 62 61 59 57 55 50 45 41 36 36 34 40 54 74 86 82 78 75 79 80 81 83 83 78 78
142 140 138 144 148 155 156 151 144 139 142 139 129 120 113 106 105 110 114 113 105 102 104 108 106 106 102 100 104 106 104 98 93 91 90 89 88 95 101 101 100 99 99 97 92 93 96 97 94 92 93 92 91 91 93 94 88 79 71 63 63 63 62 60 57 54 51 45 42 41 46 47 59 77 83 78 78 81 76 77 72 70 66 68 67
134 139 141 140 143 152 157 151 139 143 140 132 125 117 115 111 109 109 109 111 110 108 109 108 114 113 106 104 99 99 97 95 95 97 98 94 93 98 106 107 103 100 99 97 92 89 96 97 95 95 94 92 91 93 95 94 84 82 74 69 66 66 65 63 57 55 55 55 53 56 62 68 74 81 83 82 78 74 75 77 77 74 74 76 73
138 138 134 141 149 153 147 141 141 142 139 134 128 125 119 117 116 116 115 112 112 113 115 117 113 114 110 107 104 100 98 96 95 94 89 87 94 105 110 109 107 103 97 92 91 94 95 98 97 98 99 98 98 92 90 89 88 83 78 74 71 68 64 59 54 48 47 50 56 60 61 59 60 73 83 81 76 72 66 62 65 71 72 70 70
144 134 141 145 150 145 145 147 142 142 138 136 132 127 123 121 122 121 119 116 113 114 112 110 115 116 114 104 96 95 95 96 95 99 100 100 102 109 110 107 104 97 94 98 98 99 100 100 103 102 99 94 90 92 90 88 88 85 79 77 74 67 62 56 52 45 50 46 45 52 63 67 59 76 84 81 76 74 69 68 72 71 73 71 72
149 134 145 146 148 148 150 145 142 142 141 139 136 129 127 125 124 124 122 122 120 121 121 121 124 113 108 108 106 108 103 99 99 101 105 105 100 102 105 108 104 97 97 96 102 104 103 100 100 100 96 95 95 92 90 85 84 82 81 77 70 66 61 56 51 50 49 50 50 42 68 74 68 73 84 82 81 79 77 77 78 78 77 74 71
150 129 146 148 148 152 151 144 144 144 144 143 136 133 129 128 127 127 125 123 122 119 121 121 123 115 114 113 115 108 105 106 107 104 107 103 106 102 109 111 105 98 97 99 103 103 102 101 99 97 102 95 91 91 88 86 85 83 80 75 70 66 62 57 56 55 51 51 55 57 55 60 67 80 87 89 85 81 78 78 77 75 72 73 75
156 137 146 145 143 154 148 147 146 146 150 145 141 137 135 133 132 130 129 125 123 121 119 123 125 117 114 116 109 109 121 119 111 110 106 104 106 110 111 113 107 102 95 99 103 105 105 104 99 103 96 96 96 91 91 89 87 84 80 75 72 71 67 59 57 53 52 52 52 52 59 59 76 92 88 85 86 86 81 81 81 81 80 79 78
157 152 150 151 150 154 151 148 149 151 153 150 144 141 138 136 135 133 131 127 123 124 123 125 125 120 116 112 116 118 107 110 114 107 102 104 105 114 117 117 106 97 95 97 103 106 108 107 107 99 100 99 98 97 92 92 89 86 81 77 75 79 62 55 56 61 62 59 59 61 73 87 95 85 84 83 77 73 76 77 75 75 77 77 79
160 158 153 152 151 151 154 148 151 157 154 152 148 147 143 141 138 137 134 133 131 129 129 126 128 114 118 126 119 118 118 117 113 105 105 102 104 113 124 117 106 104 97 97 99 104 105 112 108 106 106 103 101 101 96 94 94 90 85 84 84 67 65 67 62 63 65 61 56 63 73 92 92 89 83 82 85 86 85 82 81 82 82 81 78
157 158 154 156 155 147 156 156 158 157 158 153 151 145 146 144 143 141 141 140 139 137 134 135 132 128 121 122 126 123 123 119 112 109 108 108 108 116 126 122 111 104 99 100 102 109 107 107 106 108 107 108 107 108 101 98 95 93 91 86 75 59 61 65 66 67 69 64 49 52 66 83 92 90 88 87 88 87 84 81 83 82 79 81 84
151 153 161 165 161 149 154 157 162 159 158 154 149 144 144 145 144 144 144 144 142 141 140 139 136 138 106 97 121 120 126 123 117 119 113 109 110 114 127 126 105 105 107 107 111 114 111 108 108 110 112 110 112 113 103 99 97 98 96 95 82 71 73 70 71 70 70 70 74 85 87 83 89 92 95 94 89 88 86 85 83 82 84 82 80
152 157 167 170 169 162 154 157 153 156 154 154 150 148 144 146 145 142 143 143 144 141 138 138 135 95 67 66 75 90 88 102 132 129 121 114 113 121 135 119 115 110 108 109 110 116 115 114 115 116 117 115 118 111 101 100 97 95 94 86 85 75 73 70 72 63 66 69 69 58 71 87 92 97 97 95 88 85 84 82 83 85 88 89 87
161 168 169 173 177 166 156 153 157 155 154 154 153 151 149 147 144 145 143 145 142 136 135 123 101 92 80 76 74 74 79 81 94 114 115 114 115 119 134 126 118 107 108 113 114 118 120 118 119 120 120 119 110 103 103 100 98 99 103 91 89 86 76 74 68 70 72 70 70 95 91 104 105 101 93 91 91 89 89 91 90 87 85 84 86
177 176 173 179 176 176 159 161 163 162 158 156 155 150 153 149 148 148 145 146 140 135 122 107 97 93 91 87 85 77 73 76 88 98 105 106 107 113 118 116 107 107 115 123 124 124 124 123 121 116 111 102 98 93 94 96 96 95 96 95 101 94 86 82 86 79 67 63 58 101 124 109 107 104 102 98 90 88 87 88 91 92 91 88 89
172 186 182 181 182 180 166 164 169 164 160 159 155 150 156 151 150 150 148 143 140 128 117 109 103 96 96 92 86 86 84 83 86 100 104 111 115 119 121 117 116 115 117 126 128 128 128 123 113 104 98 91 77 74 73 78 78 83 80 97 93 89 94 94 94 86 62 60 86 100 101 112 110 107 107 104 97 97 105 108 95 89 89 89 90
180 179 189 184 185 188 175 175 170 167 163 160 159 149 150 154 149 150 143 138 131 122 120 120 114 111 105 98 97 98 97 92 90 97 107 115 117 117 99 101 112 113 118 122 126 125 118 108 104 101 97 91 80 79 70 60 61 69 69 82 80 81 73 97 93 86 87 96 100 104 100 105 115 115 109 104 95 94 96 96 99 97 93 98 98
190 186 186 187 193 189 182 180 181 170 166 166 162 152 153 154 151 149 140 135 134 131 128 122 124 125 117 111 109 109 110 103 102 107 112 121 124 122 110 106 113 113 118 118 116 112 108 105 100 98 93 85 80 82 77 71 65 60 67 70 80 72 67 76 84 77 68 68 70 98 102 110 114 109 105 100 109 108 103 98 97 107 110 102 101
190 192 185 185 190 195 188 184 185 176 171 172 162 159 161 158 153 152 142 141 140 138 135 131 134 132 129 124 120 116 114 113 104 108 109 111 121 122 120 114 116 100 82 78 94 98 95 91 92 89 83 79 89 85 88 80 73 68 71 73 79 73 68 61 70 55 47 108 117 124 132 122 112 107 106 107 109 114 116 108 111 108 103 102 100
192 176 184 191 193 189 187 191 186 184 180 171 174 172 165 160 163 156 148 147 144 141 141 143 143 139 134 132 129 123 117 116 119 116 120 122 119 122 124 110 98 91 97 82 79 76 82 87 79 75 82 94 95 89 102 96 81 83 80 77 83 76 67 59 63 67 48 97 138 142 123 125 124 121 113 115 116 115 112 113 110 109 107 109 108
180 184 196 192 195 189 189 190 188 189 187 177 179 174 165 176 170 166 156 153 156 153 154 155 151 147 143 136 128 123 125 121 127 127 129 133 129 134 132 119 103 100 101 102 89 98 90 94 97 94 83 83 91 94 82 108 113 92 91 83 85 81 77 64 60 63 30 8 359 334 126 126 126 119 118 121 123 125 123 122 119 118 120 120 119
192 202 193 199 195 195 190 186 191 189 193 181 175 176 184 182 176 168 164 170 163 162 171 169 164 152 149 150 144 143 140 141 138 140 141 137 138 138 137 125 119 114 113 117 107 104 115 111 105 105 103 101 92 89 91 83 97 113 94 88 85 91 84 81 65 49 29 9 10 126 132 135 132 125 126 129 135 133 126 128 127 127 126 123 123
202 204 199 196 196 198 193 188 191 189 192 186 177 182 187 186 184 166 175 167 166 179 180 180 163 164 160 165 150 153 154 153 156 151 153 135 145 140 126 118 114 114 113 117 123 118 116 116 119 112 110 103 112 98 93 84 82 94 111 92 86 89 87 90 81 41 29 7 354 304 166 142 133 138 137 146 143 137 136 141 139 135 132 129 127
212 207 204 199 200 198 193 195 193 191 191 191 183 181 188 189 184 182 183 163 181 182 178 167 176 170 167 163 157 153 157 158 163 163 139 148 135 135 142 138 125 129 123 120 131 136 132 135 132 130 122 121 115 113 101 84 80 73 103 107 97 96 105 80 76 47 23 345 23 319 148 132 144 152 155 158 148 149 145 149 149 142 142 139 137
214 209 204 207 197 193 198 198 195 193 190 193 192 181 187 193 194 191 188 166 188 180 164 176 182 172 176 174 176 167 171 169 165 156 158 158 149 139 145 151 143 140 135 140 145 136 142 132 129 133 134 132 125 126 116 106 84 82 82 110 93 73 87 96 76 42 309 44 16 16 148 147 157 167 162 175 148 152 153 152 153 151 151 146 145
206 215 211 207 194 193 202 198 197 194 192 196 196 190 185 195 195 194 190 181 184 175 177 178 177 185 183 177 177 176 166 163 162 162 161 154 159 162 171 153 147 154 149 141 133 135 131 138 151 147 143 133 118 108 117 115 106 87 83 94 72 52 45 68 64 16 354 48 25 345 107 161 159 168 193 174 157 163 153 151 156 168 157 156 154
204 214 210 200 202 203 200 197 196 195 198 200 195 196 192 193 192 195 199 187 183 184 183 183 186 186 182 184 182 178 170 168 164 164 169 164 170 175 170 170 176 160 152 148 136 119 125 110 90 91 99 106 108 87 79 116 111 98 95 103 86 68 38 40 53 23 356 21 13 348 24 168 176 184 230 180 166 178 158 162 163 166 168 167 176
220 211 199 196 209 204 203 199 194 197 201 202 199 201 196 190 191 197 199 192 191 188 188 191 192 188 186 187 190 182 179 176 176 174 173 173 170 169 178 186 175 163 151 149 132 121 111 109 88 88 88 93 96 88 78 75 107 97 94 91 108 101 69 61 42 36 12 7 11 340 359 7 52 69 327 237 184 173 167 179 175 177 180 179 177
212 196 181 206 203 204 203 202 198 200 200 203 203 201 199 193 190 194 196 197 198 201 197 193 194 193 187 188 192 190 185 182 173 175 173 173 172 177 179 184 175 163 148 145 143 141 137 129 130 113 119 124 130 126 122 110 74 72 81 78 79 119 122 99 63 42 2 12 348 349 341 352 354 29 11 1 207 185 192 188 187 195 187 184 190
209 201 206 204 188 201 194 207 199 203 198 204 203 204 199 199 192 192 194 198 201 202 200 195 193 196 188 188 190 191 193 184 182 175 179 177 179 183 186 188 170 160 159 162 148 148 146 152 147 128 112 97 112 125 134 136 140 128 130 123 139 144 138 141 137 131 151 288 355 350 347 350 337 354 357 347 13 229 196 200 189 188 194 194 198
215 215 209 187 200 198 196 205 198 206 202 202 203 202 199 198 197 196 193 198 202 204 200 196 193 192 195 192 187 188 192 191 181 181 182 185 184 188 194 173 172 165 167 159 155 163 163 151 173 152 139 148 138 136 106 138 136 140 132 105 112 114 165 172 162 152 154 246 34 322 329 324 318 353 360 349 347 2 279 220 192 197 208 199 195
217 212 207 198 205 199 197 203 205 205 205 200 201 201 198 197 192 194 202 197 205 208 201 194 193 191 191 198 194 189 185 191 190 185 187 192 192 190 185 176 168 175 171 169 174 170 164 164 174 187 168 159 169 156 138 138 143 136 102 91 30 126 175 218 287 222 150 175 173 7 324 312 336 342 332 306 318 353 359 182 227 206 214 196 199
219 216 210 204 209 198 200 205 208 206 204 202 199 201 201 200 198 192 195 209 208 206 204 196 197 191 188 198 193 194 191 185 188 190 194 193 199 201 190 184 178 174 174 174 184 160 168 172 173 189 174 154 173 170 174 158 141 134 80 39 360 13 348 349 358 343 285 223 199 185 188 313 314 285 294 282 269 300 71 38 102 165 179 195 204
221 217 212 213 206 204 202 207 206 204 205 201 197 198 196 198 203 204 199 203 209 207 202 209 204 192 191 191 195 198 198 190 182 184 195 194 197 196 188 183 194 191 182 180 176 174 175 182 179 183 186 187 175 179 164 151 127 96 58 343 350 345 335 351 339 304 269 267 238 198 200 201 233 292 279 269 303 290 144 319 95 116 117 160 207
222 214 214 210 208 205 203 207 207 204 199 197 188 192 192 195 200 209 221 210 203 203 202 209 215 220 204 183 182 195 199 213 203 185 184 189 200 200 199 186 186 188 190 186 187 187 187 186 192 180 178 162 159 155 145 140 114 101 92 332 327 324 324 323 303 266 267 243 235 222 219 197 186 217 253 279 260 283 253 198 170 144 109 112 97
218 213 213 213 208 205 192 207 203 193 191 192 193 191 197 200 205 205 213 206 211 207 207 208 204 207 210 213 202 193 186 187 198 206 206 192 190 187 173 157 167 194 211 219 210 200 196 189 182 207 175 167 168 162 163 142 135 109 344 295 310 272 246 255 269 261 244 240 247 253 261 245 217 204 202 193 230 255 242 308 329 105 136 120 100
224 208 212 215 210 203 202 210 188 193 198 197 196 197 200 202 198 208 209 204 201 205 214 207 214 208 205 221 217 204 199 195 190 191 192 192 200 197 186 188 185 191 200 203 199 202 201 198 168 169 219 201 193 174 164 136 176 197 184 261 296 285 243 223 239 243 234 227 230 238 239 234 229 221 202 198 212 196 186 185 191 267 4 58 74
224 208 223 220 208 203 211 203 196 194 201 199 194 204 204 206 202 208 200 209 216 207 208 198 191 214 217 204 208 218 203 192 187 194 192 191 189 192 211 200 193 195 200 206 201 196 188 191 175 186 180 220 11 198 177 191 173 135 101 73 255 252 255 249 232 241 228 228 231 237 237 245 241 230 209 210 214 205 190 185 199 166 155 156 136
242 228 217 215 212 211 209 203 201 199 199 201 203 209 204 201 211 202 197 195 191 197 207 203 198 201 217 217 219 205 210 209 189 185 192 197 199 197 191 187 188 185 191 193 190 195 183 190 193 201 181 183 188 203 209 213 167 142 171 205 170 120 325 245 222 223 198 216 214 230 221 237 245 245 236 229 213 210 207 185 198 196 197 194 196
224 222 214 213 213 218 217 208 204 202 204 200 203 189 159 164 149 70 66 68 24 149 192 221 213 209 213 210 216 200 206 212 210 204 200 201 202 205 199 198 192 188 190 198 201 203 199 200 196 191 189 195 197 197 208 212 218 207 155 114 62 217 224 236 101 261 181 209 225 216 214 219 224 227 233 240 218 220 209 206 207 211 217 220 236
240 233 220 222 222 220 199 198 197 196 203 200 187 168 186 182 167 185 199 208 219 200 212 215 210 213 219 214 206 205 207 208 206 208 204 203 201 204 207 201 202 197 200 206 206 201 204 206 201 197 201 205 199 189 208 209 222 228 229 213 141 202 178 212 121 267 343 237 237 215 223 217 210 221 229 229 217 216 205 209 202 209 206 202 198
249 232 222 215 210 207 193 190 193 194 189 181 170 173 185 195 198 206 211 213 221 226 223 222 220 222 216 214 218 209 214 214 211 207 211 219 221 207 199 197 195 194 199 213 224 220 212 210 197 200 206 200 196 207 209 201 209 246 239 244 239 128 168 131 213 41 289 248 221 218 226 220 213 221 228 228 223 218 214 205 205 207 210 197 194
276 291 246 220 200 198 183 189 186 182 178 167 174 182 193 198 205 214 217 221 220 230 211 220 218 207 204 215 211 214 212 217 219 215 212 209 211 225 222 210 197 194 190 202 212 211 209 207 201 211 213 206 207 214 207 179 187 221 221 236 247 238 201 290 164 201 208 233 257 256 249 227 220 229 228 233 230 224 218 212 208 206 204 191 178
311 298 268 229 209 186 176 170 182 176 178 173 175 189 196 198 205 212 224 227 229 234 209 212 209 208 217 216 214 214 212 215 217 218 215 212 204 210 210 215 212 202 189 205 211 207 206 203 203 207 211 211 207 213 202 197 192 215 188 224 232 233 220 240 336 96 220 229 254 204 231 180 237 243 233 227 234 225 223 216 218 213 203 198 193
321 322 343 19 85 115 142 155 186 179 169 174 178 189 199 195 204 214 222 229 222 237 191 211 212 200 222 219 218 220 217 217 220 224 224 221 224 221 225 219 214 206 196 207 210 213 214 213 210 208 209 209 209 208 211 212 212 218 202 209 208 213 219 248 242 225 252 223 244 224 212 194 220 235 214 224 222 221 220 222 220 221 215 209 202
354 24 21 30 50 96 131 149 180 159 166 181 180 196 199 202 212 215 222 228 222 216 219 235 212 213 224 223 215 220 219 222 219 225 227 228 233 234 233 233 229 226 217 215 220 221 219 214 211 207 211 215 215 214 225 242 233 228 226 221 217 206 206 209 221 216 216 222 237 251 236 208 224 254 227 209 209 214 211 216 224 221 216 217 209